This is the latest recevied weather packets stored in our database for station/object K6HFP. If no packets are shown the sender has not sent any weather packets the latest 10 day(s).
| Time | Temp. | Humidity | Pressure | Rain* | Wind** | Luminosity | Snow |
|---|---|---|---|---|---|---|---|
| 1777729253 | 16.67° C | 59% | 1009.9 hPa | 0 mm | - | 27 W/m² | - |
| 1777728949 | 16.67° C | 59% | 1010.1 hPa | 0 mm | - | 22 W/m² | - |
| 1777728647 | 16.11° C | 61% | 1009.9 hPa | 0 mm | - | 18 W/m² | - |
| 1777728343 | 16.67° C | 60% | 1010 hPa | 0 mm | - | 13 W/m² | - |
| 1777728040 | 16.67° C | 60% | 1010 hPa | 0 mm | - | 10 W/m² | - |
| 1777727737 | 16.67° C | 59% | 1009.9 hPa | 0 mm | - | 7 W/m² | - |
| 1777727434 | 16.67° C | 60% | 1009.9 hPa | 0 mm | - | 4 W/m² | - |
| 1777727132 | 16.67° C | 59% | 1010 hPa | 0 mm | - | 2 W/m² | - |
| 1777726830 | 16.67° C | 58% | 1009.7 hPa | 0 mm | - | 1 W/m² | - |
| 1777726526 | 16.67° C | 58% | 1009.8 hPa | 0 mm | - | 1 W/m² | - |
| 1777726223 | 16.67° C | 58% | 1009.6 hPa | 0 mm | - | 0 W/m² | - |
| 1777725920 | 16.67° C | 58% | 1009.7 hPa | 0 mm | - | 0 W/m² | - |
| 1777725617 | 16.67° C | 59% | 1009.6 hPa | 0 mm | - | 0 W/m² | - |
| 1777725315 | 17.22° C | 58% | 1010 hPa | 0 mm | - | 0 W/m² | - |
| 1777725011 | 17.22° C | 58% | 1009.7 hPa | 0 mm | - | 0 W/m² | - |
| 1777724708 | 17.22° C | 58% | 1009.5 hPa | 0 mm | - | 0 W/m² | - |
| 1777724406 | 17.22° C | 57% | 1009.8 hPa | 0 mm | - | 0 W/m² | - |
| 1777724103 | 17.78° C | 57% | 1009.7 hPa | 0 mm | - | 0 W/m² | - |
| 1777723800 | 17.22° C | 57% | 1009.5 hPa | 0 mm | - | 0 W/m² | - |
| 1777723496 | 17.78° C | 56% | 1009.5 hPa | 0 mm | - | 0 W/m² | - |
| 1777723193 | 17.22° C | 57% | 1009.7 hPa | 0 mm | - | 0 W/m² | - |
| 1777722890 | 17.22° C | 57% | 1009.6 hPa | 0 mm | - | 0 W/m² | - |
| 1777722586 | 16.67° C | 58% | 1009.6 hPa | 0 mm | - | 0 W/m² | - |
| 1777722284 | 16.67° C | 59% | 1009.6 hPa | 0 mm | - | 0 W/m² | - |
| 1777721981 | 16.67° C | 58% | 1009.7 hPa | 0 mm | - | 0 W/m² | - |
* Rain latest hour (hover to see other rain measurements)
** Current wind speed in m/s (hover to see current wind gust speed)